This is the latest recevied weather packets stored in our database for station/object LU7HCN-13. If no packets are shown the sender has not sent any weather packets the latest 10 day(s).
| Time | Temp. | Humidity | Pressure | Rain* | Wind** | Luminosity | Snow |
|---|---|---|---|---|---|---|---|
| 1788158090 | 52° F | 89% | 752.6 mmHg | 0 in | - | - | - |
| 1788157160 | 53° F | 87% | 752.8 mmHg | 0 in | - | - | - |
| 1788156260 | 53° F | 89% | 752.8 mmHg | 0 in | - | - | - |
| 1788155360 | 53° F | 88% | 752.9 mmHg | 0 in | - | - | - |
| 1788154430 | 53° F | 88% | 753 mmHg | 0 in | - | - | - |
| 1788153530 | 53° F | 90% | 753.1 mmHg | 0 in | - | - | - |
| 1788152630 | 53° F | 89% | 753.4 mmHg | 0 in | - | - | - |
| 1788151730 | 53° F | 88% | 753.4 mmHg | 0 in | - | - | - |
| 1788150829 | 54° F | 86% | 753.4 mmHg | 0 in | - | - | - |
| 1788149929 | 55° F | 84% | 753.5 mmHg | 0 in | - | - | - |
| 1788149029 | 56° F | 83% | 753.4 mmHg | 0 in | - | - | - |
| 1788148129 | 56° F | 84% | 753.5 mmHg | 0 in | - | - | - |
| 1788147229 | 56° F | 85% | 753.7 mmHg | 0 in | - | - | - |
| 1788146329 | 56° F | 85% | 753.6 mmHg | 0 in | - | - | - |
| 1788145429 | 57° F | 82% | 753.6 mmHg | 0 in | - | - | - |
| 1788144529 | 58° F | 81% | 753.7 mmHg | 0 in | - | - | - |
| 1788143629 | 58° F | 80% | 753.8 mmHg | 0 in | - | - | - |
| 1788142729 | 57° F | 81% | 753.7 mmHg | 0 in | - | - | - |
| 1788141829 | 58° F | 80% | 753.7 mmHg | 0 in | - | - | - |
| 1788140929 | 58° F | 80% | 753.7 mmHg | 0 in | - | - | - |
| 1788140029 | 58° F | 79% | 753.4 mmHg | 0 in | - | - | - |
| 1788139129 | 59° F | 78% | 753.4 mmHg | 0 in | - | - | - |
| 1788138229 | 59° F | 77% | 753.7 mmHg | 0 in | - | - | - |
| 1788137329 | 59° F | 78% | 753.5 mmHg | 0 in | - | - | - |
| 1788136428 | 59° F | 77% | 753.4 mmHg | 0 in | - | - | - |
* Rain latest hour (hover to see other rain measurements)
** Current wind speed in m/s (hover to see current wind gust speed)